{"data":{"norad_id":44864,"epoch":"2026-09-17T19:43:38.708256Z","epoch_age_seconds":245669,"freshness":"STALE","line1":"1 44864U 19090A   26260.82197579 -.00000026  00000+0  00000+0 0  9996","line2":"2 44864  56.6443  59.7336 0015783 291.7296  68.9891  1.86231606 45967","mean_motion":1.86231606,"eccentricity":0.0015783,"inclination_deg":56.6443,"raan_deg":59.7336,"arg_perigee_deg":291.7296,"mean_anomaly_deg":68.9891,"bstar":0,"rev_number":4596,"period_min":773.23072647508,"perigee_km":21483.946783929,"apogee_km":21572.035267655,"semimajor_km":27906.128025792,"source":"CELESTRAK","updated_at":"2026-09-20T09:00:46.713913Z"}}